Location: Ste-F�licit�
(48.8999°N, 67.3360°W)
Time: 21:26:38
(UTC-04:00)

DELFI C3 - Visible Passes

Search period start: 23 October 2020 00:00
Search period end: 01 November 2020 23:00
Orbit: 535 x 549 km, 97.4° (Epoch: 23 October)

Date Brightness Start Highest point End Pass type
(mag) Time Alt. Az. Time Alt. Az. Time Alt. Az.
23 Oct ? 18:51:35 13° NE 18:51:35 13° NE 18:52:25 10° NNE visible
23 Oct ? 20:27:09 17° NNW 20:27:09 17° NNW 20:28:11 10° NNW visible
24 Oct ? 18:45:00 11° NE 18:45:00 11° NE 18:45:25 10° NNE visible
24 Oct ? 20:20:33 17° NNW 20:20:33 17° NNW 20:21:32 10° NNW visible
25 Oct ? 20:13:57 16° NNW 20:13:57 16° NNW 20:14:50 10° NNW visible
26 Oct ? 20:07:21 15° N 20:07:21 15° N 20:08:08 10° N visible
27 Oct ? 20:00:44 15° N 20:00:44 15° N 20:01:25 10° N visible
28 Oct ? 19:54:08 14° N 19:54:08 14° N 19:54:40 10° N visible
29 Oct ? 19:47:30 13° N 19:47:30 13° N 19:47:55 10° N visible
30 Oct ? 19:40:53 12° N 19:40:53 12° N 19:41:09 10° N visible
31 Oct ? 19:34:15 11° N 19:34:15 11° N 19:34:22 10° N visible
